Tracking 29892 objects as of 21-Nov-2024
HD Live streaming from Space Station
objects crossing your sky now

STARLINK-4730

Track STARLINK-4730 now!
10-day predictions
STARLINK-4730 is classified as:


NORAD ID: 53794
Int'l Code: 2022-111X
Perigee: 544.5 km
Apogee: 549.2 km
Inclination: 53.2 °
Period: 95.4 minutes
Semi major axis: 6917 km
RCS: Unknown
Launch date: September 11, 2022
Source: United States (US)
Launch site: AIR FORCE EASTERN TEST RANGE (AFETR)
Your satellite tracking list
Your tracking list is empty




NASA's NSSDC Master Catalog

Two Line Element Set (TLE):
1 53794U 22111X   24325.77757263  .00001710  00000-0  12549-3 0  9998
2 53794  53.2171 241.4433 0003357  85.0989 275.0387 15.08848600122149
Source of the keplerian elements: AFSPC